Location: Ehemalige Kartause Ittingen
(47.5834°N, 8.8660°E)
Time: 21:32:16
(UTC+00:00)

Daily predictions for brighter satellites

Satellite Brightness Start Highest point End
(mag) Time Altitude Azimuth Time Altitude Azimuth Time Altitude Azimuth
Cosmos 2233 Rocket 4.3 17:39:19 10° SSW 17:45:32 76° W 17:51:44 10° N
COSMO-SKYMED 1 2.7 17:45:30 10° NNE 17:49:52 81° WNW 17:54:13 10° SSW
Nadezhda 4 Rocket 4.4 17:46:53 10° N 17:52:38 40° ENE 17:58:22 10° SE
Ariane Rocket 4.2 17:49:24 10° ESE 17:53:20 23° ENE 17:57:16 10° N
Cosmos 1689 Rocket 3.6 17:50:49 10° N 17:53:40 42° WNW 17:56:30 10° SW
H-2A R/B 2.3 17:49:17 10° SE 17:54:01 45° ENE 17:58:56 10° N
SJ 16-02 4.1 17:52:11 10° WSW 17:55:33 21° NW 17:58:58 10° N
Exosat Rocket 4.4 17:53:29 10° SSE 17:57:55 26° ESE 18:02:03 10° NE
Cosmos 2263 Rocket 3.3 17:53:28 10° SW 17:58:49 47° NW 18:04:14 10° NNE
USA 116 3.9 17:56:30 10° NNE 18:00:05 48° E 18:04:06 10° S
COSMOS 2406 4.4 17:56:59 10° N 18:01:34 24° NE 18:05:51 11° E
Cosmos 1939 Rocket 4.1 17:58:00 10° S 18:02:01 49° W 18:06:05 10° NNW
Cosmos 1844 Rocket 2.9 17:57:53 10° S 18:03:14 49° ESE 18:08:35 10° NE
Cosmos 372 Rocket 4.0 17:59:50 10° SSW 18:05:04 87° ESE 18:10:19 10° NNE
Cosmos 1707 2.7 18:01:13 10° N 18:05:05 87° E 18:08:55 10° S
Cosmos 1626 4.0 18:04:26 10° NE 18:06:22 13° ENE 18:07:28 12° E
NOSS 3-2 (C) 4.1 17:59:27 10° NW 18:06:50 70° NE 18:15:15 10° SE
Cosmos 2278 Rocket4.118:10:00ENE18:10:00ENE18:03:58SE
Cosmos 1844 4.0 18:05:18 10° S 18:10:40 45° ESE 18:16:02 10° NE
Cosmos 2034 Rocket 4.2 18:04:57 10° SSE 18:11:03 50° E 18:17:08 10° NNE
ISS -3.2 18:08:16 10° W 18:11:36 56° NNW 18:14:49 11° ENE
NOSS 3-4 (A) 4.2 18:07:15 10° S 18:12:09 28° ESE 18:17:16 10° ENE
NOSS 3-4 (C) 4.2 18:07:23 10° S 18:12:15 27° ESE 18:17:22 10° ENE
Meteor 2-5 Rocket 4.5 18:07:43 10° N 18:12:49 33° ENE 18:17:58 10° SE
USA 186 3.1 18:11:04 14° ESE 18:13:03 23° ENE 18:15:45 10° NNE
Meteor 1-12 Rocket 4.3 18:08:33 10° S 18:14:24 75° E 18:20:11 10° NNE
Lacrosse 4 Rocket 3.6 18:13:02 10° NNE 18:14:34 12° NE 18:16:06 10° NE
Cosmos 1300 Rocket 3.5 18:15:18 10° S 18:19:42 81° E 18:24:10 10° NNE
Okean 1 Rocket 3.8 18:19:03 10° SSE 18:23:00 31° E 18:26:58 10° NNE
Sich 1 Rocket 4.3 18:19:37 10° SSW 18:24:05 59° WNW 18:28:37 10° N
CENTAUR R/B 3.2 18:17:54 10° NW 18:25:56 81° NE 18:34:46 10° SE
Cosmos 2298 Rocket 4.0 18:21:01 10° SSW 18:26:21 89° ESE 18:31:43 10° NNE
Resurs 01 Rocket 3.4 18:25:51 14° ENE 18:26:43 14° ENE 18:29:04 10° NNE
Cosmos 1833 Rocket 3.8 18:22:22 10° N 18:27:09 27° NE 18:30:12 18° E
CSL-04 Debris 4.4 18:24:46 10° S 18:30:09 74° WSW 18:35:34 10° NNW
CSL-04 Rocket 3.9 18:26:39 10° S 18:32:06 75° WSW 18:37:39 10° NNW
Cosmos 1766 4.0 18:30:30 10° SSE 18:33:59 32° E 18:37:31 10° NNE
Okean 2 Rocket 3.4 18:29:48 10° SSW 18:34:17 71° W 18:38:45 10° N
Cosmos 1025 Rocket 3.4 18:30:07 10° NNW 18:34:29 68° W 18:38:51 10° S
ATLAS 2AS CENTAUR R/B 3.3 18:27:15 10° S 18:34:34 43° ESE 18:41:52 10° NE
YAOGAN 1 3.9 18:30:42 10° S 18:34:48 43° W 18:38:57 10° NNW
ATLAS 3B R/B 3.3 18:31:41 10° NW 18:38:09 43° NE 18:42:35 21° E
Cosmos 1634 Rocket 4.4 18:33:17 10° SSE 18:38:52 37° E 18:44:28 10° NNE
Abrixas rocket 2.1 18:38:33 10° W 18:41:21 56° SSW 18:42:11 37° SE
CREW DRAGON DEMO-1 DEB 2.9 18:40:14 10° WNW 18:43:15 66° SSW 18:44:16 36° SE
Cosmos 1536 Rocket 3.8 18:39:49 10° NNW 18:44:17 73° W 18:48:44 10° S
Cosmos 1125 Rocket 3.5 18:41:40 10° SSW 18:46:59 84° ESE 18:52:20 10° NNE
Resurs 1-3 4.5 18:48:54 28° E 18:49:52 31° ENE 18:53:44 10° N
SJ-6B 2.9 18:48:31 30° SE 18:50:00 50° ENE 18:53:42 10° N
Cosmos 1892 Rocket 4.4 18:47:12 10° N 18:51:00 29° ENE 18:51:24 28° E
CZ-4 R/B 3.9 18:49:10 10° SSW 18:52:34 24° W 18:55:57 10° NW
CZ-2C R/B 4.3 18:49:25 10° S 18:54:33 46° W 19:00:00 10° NNW
Cosmos 2195 Rocket 4.5 18:48:23 10° N 18:54:36 64° ENE 19:00:07 13° SSE
USA 238 DEB 4.5 18:48:04 10° NW 18:55:04 55° WSW 19:02:20 10° SSE
USA 238 4.5 18:48:10 10° NW 18:55:11 55° WSW 19:02:27 10° SSE
Cosmos 1674 2.8 18:52:49 10° NNW 18:56:41 74° W 19:00:17 11° S
Cosmos 2026 Rocket 4.1 18:51:09 10° N 18:57:27 59° ENE 19:02:16 18° SSE
Cosmos 1092 Rocket 3.9 18:51:30 10° N 18:57:41 75° E 19:03:53 10° SSE
Cosmos 2285 Rocket 3.9 18:51:24 10° SSW 18:57:41 80° ESE 19:04:04 10° NNE
MOS 1 Rocket 3.6 18:58:31 10° N 19:02:52 61° WNW 19:07:05 10° SSW
FREGAT/IRIS 3.3 19:04:41 36° N 19:04:41 36° N 19:06:24 10° N
Cosmos 1428 Rocket 4.5 18:59:48 10° N 19:06:02 63° ENE 19:10:06 22° SSE
TSX-5 3.9 19:05:03 10° SSW 19:08:52 68° ESE 19:13:48 10° NE
ARGOS 3.8 19:04:49 10° S 19:10:04 55° W 19:15:23 10° NNW
CZ-2C R/B 2.6 19:07:34 10° NNE 19:13:10 75° ESE 19:18:46 10° S
Cosmos 1340 Rocket 3.2 19:15:11 45° ENE 19:15:11 45° ENE 19:18:21 10° NNE
Cosmos 2279 Rocket 4.3 19:12:59 31° SE 19:15:20 44° E 19:21:14 10° NNE
Cosmos 1733 3.0 19:13:48 23° S 19:16:08 86° E 19:19:59 10° N
MOS 1 4.3 19:13:05 18° SSE 19:17:24 87° WSW 19:23:09 10° NNW
GRACE-FO 1 4.4 19:14:58 10° N 19:18:42 84° E 19:19:03 71° SSE
GRACE-FO 2 4.4 19:15:20 10° N 19:19:04 85° E 19:19:26 72° SSE
Lacrosse 5 rocket 2.9 19:15:37 10° NW 19:19:29 29° NNE 19:20:43 25° NE
Cosmos 2082 Rocket 2.8 19:15:09 10° NNW 19:20:22 37° NE 19:21:17 35° ENE
Cosmos 2098 Rocket 4.4 19:14:25 10° N 19:20:36 37° ENE 19:21:19 36° E
DMSP B5D2-2 3.9 19:17:41 10° NNE 19:23:00 78° ESE 19:28:17 10° S
BREEZE-M DEB (TANK) 4.3 19:20:01 10° W 19:23:29 37° SSW 19:27:36 23° SSE
BREEZE-M R/B 3.3 19:15:06 10° WSW 19:23:57 90° ESE 19:24:25 66° ENE
OBJECT-B 1.8 19:28:48 41° N 19:28:48 41° N 19:31:02 10° N
Cosmos 1805 4.2 19:24:19 10° SSW 19:28:06 49° WNW 19:31:56 10° N
Cosmos 2142 Rocket 4.4 19:24:37 20° S 19:29:00 64° E 19:35:08 10° NNE
Ariane Rocket 3.5 19:28:06 17° S 19:31:55 56° W 19:36:57 10° NNW
Milstar 3 Cent rocket 4.4 19:31:01 10° SSW 19:32:28 11° S 19:32:39 11° S
H-2A R/B 4.1 19:29:31 10° SSW 19:33:41 26° W 19:37:57 10° NW
Terra 4.1 19:42:51 12° NE 19:42:51 12° NE 19:43:41 10° NNE
Cosmos 1626 2.8 19:38:20 10° NNW 19:41:56 50° W 19:42:02 50° W
Okean 1-7 Rocket 3.7 19:37:47 10° N 19:41:51 63° NE 19:41:51 63° NE
USA 186 4.1 19:42:34 19° SW 19:43:42 22° W 19:46:21 10° NW
Cosmos 1455 Rocket 4.4 19:47:18 30° NNE 19:47:18 30° NNE 19:49:35 10° NNE
COSMOS 2406 3.3 19:40:46 10° NNW 19:46:27 72° WSW 19:47:55 50° S
Cosmos 1844 Rocket 4.4 19:42:21 10° WSW 19:47:19 32° NW 19:52:21 10° NNE
ISS -1.9 19:45:34 10° WNW 19:47:46 31° NW 19:47:46 31° NW
Cosmos 2278 Rocket 2.1 19:45:24 10° SSW 19:51:32 66° ENE 19:56:40 10° NNE
Lacrosse 4 Rocket 2.4 19:50:02 10° NNW 19:52:52 40° N 19:52:52 40° N
Meteor 1-24 Rocket 4.4 19:53:19 10° NNW 19:58:42 51° W 20:01:37 27° SSW
Cosmos 909 Rocket 4.0 19:52:46 10° NNW 19:59:18 67° NE 19:59:55 63° E
Cosmos 2266 Rocket 4.1 19:55:05 10° N 20:00:33 55° ENE 20:00:33 55° ENE
NOSS 3-4 (A) 3.7 19:56:36 10° SW 20:02:30 64° NW 20:08:53 10° NE
NOSS 3-4 (C) 3.7 19:56:42 10° SW 20:02:36 65° NW 20:09:00 10° NE
Resurs 01 Rocket 2.1 20:03:26 58° NNW 20:03:26 58° NNW 20:07:05 10° NNW
Meteor 2-19 Rocket 4.3 19:56:48 10° N 20:02:57 89° W 20:03:47 69° S
Cosmos 1833 Rocket 2.9 20:05:55 10° NNW 20:11:31 62° WSW 20:11:54 61° SW
Cosmos 2251 Rocket 3.7 20:09:01 10° NNW 20:13:44 69° NNW 20:13:44 69° NNW
ERS-1 Rocket 4.4 20:17:40 28° NNE 20:17:40 28° NNE 20:20:23 10° N
ARIANE 5 R/B 4.0 20:20:05 33° NNW 20:20:05 33° NNW 20:22:31 10° NNW
SPOT 3 Rocket 4.3 20:20:50 43° WSW 20:21:20 45° W 20:26:18 10° NNW
ATLAS 2AS CENTAUR R/B 3.4 20:17:32 10° WSW 20:25:25 61° NW 20:33:11 10° NE
ATLAS 3B R/B 3.0 20:22:23 10° NW 20:29:07 58° WSW 20:29:50 55° SW
SPOT 5 4.4 20:33:48 32° NNE 20:33:48 32° NNE 20:36:52 10° N
Cosmos 1655 Rocket 4.2 20:31:26 10° NNW 20:37:38 64° W 20:37:50 63° WSW
Lacrosse 5 rocket 3.9 20:54:43 10° NW 20:56:20 22° NW 20:56:20 22° NW
Cosmos 2082 Rocket 3.5 20:59:15 10° NW 21:03:08 35° WNW 21:03:08 35° WNW
Terra 4.2 21:21:45 19° NNW 21:21:45 19° NNW 21:23:08 10° NNW
Cosmos 2278 Rocket 4.2 21:33:01 18° W 21:35:40 25° NW 21:40:16 10° N
SL-16 R/B 4.4 23:50:37 25° NNE 23:50:37 25° NNE 23:53:51 10° N
